Charter Quote
Worldwide +1-877-727-2538 Call
Select Language Lang
SAFETY RELIABILITY EXPERIENCE

Private Jet Charter Services - Baita Airport (ZBHH)

Paramount Business Jets offers private jet charter flights and luxury airliner charters to and from Baita Airport.

AIRPORT INFORMATION
ICAOZBHH
IATAHET
LOCATIONHuhhot, China
FACILITY TYPEAIRPORT

At Paramount Business Jets you can hire chartered private jets to and from Baita Airport with as little as 4 hours of notice. All flights booked via Paramount Business Jets are operated by certified direct air carriers that meet and exceed the FAA part 135 and 121 protocol or a foreign equivalent safety authority. Furthermore, Paramount Business Jets subscribes to ARGUS for their third party safety checks of operators, aircraft, and crews prior each and every flight to and from Baita Airport and worldwide.

  • Quote a trip using Baita Airport or call us 24/7 - 365 days a year at +1-877-727-2538.
Questions? Call +1-877-727-2538

METAR Weather Data at Baita Airport, ZBHH, HET

STATIONZBHH
OBSERVEDMon Oct 21, 20:00 UTC
NOWMon Oct 21, 20:49 UTC
AGE49 min ago
WINDENE at 7 mph
VISIBILITYgreater than 7 miles
CLOUDSclear skies
TEMP39°F (4°C)
WIND CHILL34°F (1°C)
DEWPT27°F (-3°C)
HUMIDITY61%
BAROMETER1018 hPa (30.06 in Hg)
METARZBHH 212000Z 07003MPS CAVOK 04/M03 Q1018 NOSIG

Call us on +1-877-727-2538 (24 Hours) to Hire a Private Jet or Get a Quick Quote.

Find Airports Near any Location

Processing
...